TimeEST,TemperatureF,Dew PointF,Humidity,Sea Level PressureIn,VisibilityMPH,Wind Direction,Wind SpeedMPH,Gust SpeedMPH,PrecipitationIn,Events,Conditions,WindDirDegrees,DateUTC
12:00 AM,28.4,21.2,74,30.32,15.0,SW,5.8,-,N/A,,Partly Cloudy,230,2012-11-29 05:00:00
1:00 AM,28,22,71,30.31,15,SW,8.1,,,,,230,2012-11-29 06:00:00
1:00 AM,28.4,23.0,80,30.31,15.0,SW,8.1,-,N/A,,Clear,230,2012-11-29 06:00:00
2:00 AM,28.4,23.0,80,30.31,15.0,SW,10.4,-,N/A,,Clear,230,2012-11-29 07:00:00
3:00 AM,30.2,23.0,75,30.32,15.0,WSW,9.2,-,N/A,,Partly Cloudy,240,2012-11-29 08:00:00
4:00 AM,30.2,23.0,75,30.31,15.0,WSW,9.2,-,N/A,,Mostly Cloudy,250,2012-11-29 09:00:00
5:00 AM,33.8,23.0,65,30.32,15.0,WSW,8.1,-,N/A,,Mostly Cloudy,250,2012-11-29 10:00:00
6:00 AM,33.8,24.8,70,30.31,15.0,SW,8.1,-,N/A,,Mostly Cloudy,230,2012-11-29 11:00:00
7:00 AM,34,25,58,30.31,15,SW,10.4,,,,Mostly Cloudy,230,2012-11-29 12:00:00
7:00 AM,33.8,24.8,70,30.31,15.0,SW,10.4,-,N/A,,Mostly Cloudy,230,2012-11-29 12:00:00
8:00 AM,33.8,24.8,70,30.31,15.0,WSW,9.2,-,N/A,,Mostly Cloudy,240,2012-11-29 13:00:00
9:00 AM,33.8,24.8,70,30.32,12.0,WSW,9.2,-,N/A,,Mostly Cloudy,240,2012-11-29 14:00:00
10:00 AM,37.4,24.8,60,30.32,12.0,WSW,11.5,21.9,N/A,,Mostly Cloudy,240,2012-11-29 15:00:00
11:00 AM,39.2,26.6,61,30.31,15.0,WSW,17.3,-,N/A,,Scattered Clouds,240,2012-11-29 16:00:00
12:00 PM,41.0,26.6,57,30.29,15.0,WSW,17.3,-,N/A,,Scattered Clouds,240,2012-11-29 17:00:00
1:00 PM,45,27,37,30.25,15,SW,15.0,,,,Scattered Clouds,230,2012-11-29 18:00:00
1:00 PM,44.6,26.6,49,30.25,15.0,SW,15.0,-,N/A,,Partly Cloudy,230,2012-11-29 18:00:00
2:00 PM,46.4,28.4,50,30.23,15.0,SW,16.1,-,N/A,,Partly Cloudy,230,2012-11-29 19:00:00
3:00 PM,46.4,28.4,50,30.22,15.0,SW,13.8,-,N/A,,Mostly Cloudy,230,2012-11-29 20:00:00
4:00 PM,46.4,28.4,50,30.22,15.0,SW,13.8,-,N/A,,Mostly Cloudy,230,2012-11-29 21:00:00
5:00 PM,42.8,30.2,61,30.22,12.0,SSW,8.1,-,N/A,,Mostly Cloudy,210,2012-11-29 22:00:00
6:00 PM,41.0,30.2,65,30.23,15.0,SSW,6.9,-,N/A,,Partly Cloudy,200,2012-11-29 23:00:00
7:00 PM,38,29,62,30.24,15,SSW,5.8,,,,Clear,200,2012-11-30 00:00:00
7:00 PM,39.2,30.2,70,30.24,15.0,SSW,5.8,-,N/A,,Scattered Clouds,200,2012-11-30 00:00:00
8:00 PM,35.6,28.4,75,30.25,15.0,South,2.3,-,N/A,,Partly Cloudy,170,2012-11-30 01:00:00
9:00 PM,33.8,28.4,81,30.25,12.0,South,4.6,-,N/A,,Partly Cloudy,190,2012-11-30 02:00:00
10:00 PM,37.4,30.2,75,30.25,12.0,SSW,3.5,-,N/A,,Mostly Cloudy,200,2012-11-30 03:00:00
11:00 PM,37.4,30.2,75,30.25,10.0,South,2.3,-,N/A,,Scattered Clouds,190,2012-11-30 04:00:00